Location: Breux
(46.3269°N, 3.2993°E)
Time: 12:55:45
(UTC+00:00)

SL-16 R/B - Pass Details

Date: 09 April 2020
Orbit: 985 x 1007 km, 99.5° (Epoch: 27 May)

Event Time Altitude Azimuth Distance (km) Brightness Sun altitude
Exits shadow 23:48:39 19° 75° (ENE) 2,168 4.4 -35.6°
Maximum altitude 23:50:09 21° 56° (NE) 2,077 4.5 -35.6°
Drops below altitude 10° 23:54:36 10° 10° (N) 2,774 5.6 -35.6°
Sets 23:57:41 0° 355° (N) 3,724 6.5 -35.6°
